Richmond (Nsw), New South Wales

9:10 PM AEST on September 28, 2016 (GMT +1000)
Richmond (Military)

Weather History for YSRI - April, 2014

Change the Weather History Date:

Sunday, April 6, 2014

  Actual Average (YSSY) Record (YSSY)
Temperature  
Mean Temperature 68 °F -  
Max Temperature 73 °F 72 °F 93 °F (2016)
Min Temperature 62 °F 59 °F 55 °F (2003)
Cooling Degree Days 2    
Growing Degree Days 18 (Base 50)    
Moisture  
Dew Point 64 °F    
Average Humidity 95    
Maximum Humidity 100    
Minimum Humidity 61    
Precipitation  
Precipitation 0.00 in - - ()
Sea Level Pressure  
Sea Level Pressure 30.14 in    
Wind  
Wind Speed 5 mph ()    
Max Wind Speed 17 mph    
Max Gust Speed -    
Visibility 5.9 miles    
Events Rain    
Averages and records for this station are not official NWS values.
T = Trace of Precipitation, MM = Missing Value Source: Averaged Metar Reports

Daily Weather History Graph

Daily Weather History Graph

Search for Another Location

Airport or City:

Trip Planner

Search our weather history database for the weather conditions in past years. The results will help you decide how hot, cold, wet, or windy it might be!

Date:

Astronomy

Apr. 06, 2014 Rise Set
Actual Time 6:12 AM AEST 5:46 PM AEST
Civil Twilight 5:47 AM AEST 6:11 PM AEST
Nautical Twilight 5:18 AM AEST 6:39 PM AEST
Astronomical Twilight 4:49 AM AEST 7:08 PM AEST
Moon 12:01 PM AEST (4/6) 10:38 PM AEST (4/6)
Length of Visible Light 12h 23m
Length of Day
11h 33m
Waxing Crescent, 38% of the Moon is Illuminated
Apr 6
Waxing Crescent
Apr 7
First Quarter
Apr 15
Full
Apr 22
Last Quarter
Apr 29
New

Hourly Weather History & Observations

Time (AEST) Temp. Dew Point Humidity Pressure Visibility Wind Dir Wind Speed Gust Speed Precip Events Conditions
12:00 AM 64.4 °F 64.4 °F 100% 30.09 in 6.2 mi WNW 3.5 mph - N/A   Light Drizzle
12:30 AM 64.4 °F 64.4 °F 100% 30.09 in 6.2 mi NNW 2.3 mph - N/A   Overcast
1:00 AM 64.4 °F 64.4 °F 100% 30.09 in 6.2 mi Calm Calm - N/A   Overcast
1:30 AM 64.4 °F 64.4 °F 100% 30.09 in 6.2 mi Calm Calm - N/A   Overcast
2:00 AM 64.4 °F 64.4 °F 100% 30.09 in 6.2 mi Calm Calm - N/A   Overcast
2:30 AM 64.4 °F 64.4 °F 100% 30.09 in 6.2 mi Calm Calm - N/A   Overcast
2:00 AM 64.4 °F 64.4 °F 100% 30.09 in 6.2 mi Calm Calm - N/A   Overcast
2:30 AM 64.4 °F 64.4 °F 100% 30.06 in 6.2 mi Calm Calm - N/A   Overcast
3:00 AM 64.4 °F 64.4 °F 100% 30.06 in 6.2 mi West 1.2 mph - N/A   Overcast
3:30 AM 64.4 °F 64.4 °F 100% 30.06 in 6.2 mi SSW 4.6 mph - N/A   Overcast
5:00 AM 64.4 °F 64.4 °F 100% 30.09 in 6.2 mi South 1.2 mph - N/A   Overcast
5:30 AM 62.6 °F 62.6 °F 100% 30.09 in 6.2 mi Calm Calm - N/A   Overcast
6:00 AM 62.6 °F 62.6 °F 100% 30.09 in 6.2 mi WSW 2.3 mph - N/A   Overcast
6:30 AM 62.6 °F 62.6 °F 100% 30.12 in 6.2 mi Calm Calm - N/A   Overcast
7:00 AM 64.4 °F 64.4 °F 100% 30.12 in 6.2 mi SW 3.5 mph - N/A   Overcast
7:30 AM 66.2 °F 64.4 °F 94% 30.12 in 6.2 mi SW 6.9 mph - N/A   Overcast
8:00 AM 68.0 °F 62.6 °F 83% 30.12 in 6.2 mi SW 9.2 mph - N/A   Overcast
8:30 AM 68.0 °F 62.6 °F 83% 30.12 in 6.2 mi SW 11.5 mph - N/A   Overcast
9:00 AM 69.8 °F 62.6 °F 78% 30.15 in 6.2 mi SSW 9.2 mph - N/A   Mostly Cloudy
9:30 AM 71.6 °F 62.6 °F 73% 30.15 in 6.2 mi SW 12.7 mph - N/A   Overcast
10:00 AM 71.6 °F 62.6 °F 73% 30.15 in 6.2 mi SW 11.5 mph - N/A   Overcast
10:30 AM 73.4 °F 62.6 °F 69% 30.15 in 6.2 mi South 10.4 mph - N/A   Mostly Cloudy
11:00 AM 73.4 °F 59.0 °F 61% 30.12 in 6.2 mi SSW 13.8 mph - N/A   Overcast
11:30 AM 73.4 °F 60.8 °F 65% 30.12 in 6.2 mi SSW 9.2 mph - N/A   Overcast
12:00 PM 73.4 °F 60.8 °F 65% 30.12 in 6.2 mi South 11.5 mph - N/A   Overcast
12:16 PM 68.0 °F 64.4 °F 88% 30.12 in 3.7 mi South 13.8 mph - N/A Rain Heavy Rain
12:28 PM 69.8 °F 68.0 °F 94% 30.12 in 6.2 mi SSE 6.9 mph - N/A Rain Light Rain Showers
12:30 PM 69.8 °F 68.0 °F 94% 30.12 in 6.2 mi SSE 6.9 mph - N/A Rain Light Rain Showers
12:55 PM 66.2 °F 66.2 °F 100% 30.12 in 3.7 mi SSE 13.8 mph - N/A Rain Rain Showers
1:00 PM 66.2 °F 66.2 °F 100% 30.12 in - South 11.5 mph - N/A Rain Heavy Rain Showers
1:14 PM 66.2 °F 66.2 °F 100% 30.12 in 5.6 mi South 9.2 mph - N/A Rain Light Rain Showers
1:30 PM 68.0 °F 68.0 °F 100% 30.12 in 6.2 mi South 10.4 mph - N/A Rain Light Rain Showers
2:00 PM 68.0 °F 68.0 °F 100% 30.12 in 6.2 mi SSW 10.4 mph - N/A Rain Light Rain Showers
2:30 PM 68.0 °F 68.0 °F 100% 30.12 in 4.3 mi SSW 6.9 mph - N/A Rain Light Rain Showers
2:49 PM 66.2 °F 64.4 °F 94% 30.15 in 5.0 mi SSE 17.3 mph - N/A Rain Light Rain Showers
2:50 PM 64.4 °F 64.4 °F 100% 30.15 in 3.7 mi SSE 17.3 mph - N/A Rain Light Rain Showers
3:00 PM 64.4 °F 64.4 °F 100% 30.15 in 4.3 mi SSE 11.5 mph - N/A Rain Light Rain Showers
3:09 PM 64.4 °F 64.4 °F 100% 30.15 in 6.2 mi SE 6.9 mph - N/A Rain Light Rain Showers
3:30 PM 66.2 °F 64.4 °F 94% 30.15 in 6.2 mi SSW 5.8 mph - N/A   Overcast
4:00 PM 66.2 °F 66.2 °F 100% 30.15 in 5.6 mi SW 6.9 mph - N/A Rain Light Rain Showers
4:03 PM 66.2 °F 66.2 °F 100% 30.15 in 3.7 mi SSW 6.9 mph - N/A Rain Light Rain Showers
4:30 PM 64.4 °F 64.4 °F 100% 30.18 in - SSE 11.5 mph - N/A Rain Light Rain Showers
5:00 PM 64.4 °F 64.4 °F 100% 30.18 in 6.2 mi South 4.6 mph - N/A Rain Light Rain Showers
5:30 PM 64.4 °F 64.4 °F 100% 30.18 in 6.2 mi Calm Calm - N/A   Overcast
6:00 PM 64.4 °F 64.4 °F 100% 30.18 in 6.2 mi Calm Calm - N/A   Overcast
6:30 PM 64.4 °F 64.4 °F 100% 30.18 in 6.2 mi West 3.5 mph - N/A   Overcast
7:00 PM 64.4 °F 64.4 °F 100% 30.18 in 6.2 mi West 5.8 mph - N/A   Overcast
7:30 PM 62.6 °F 62.6 °F 100% 30.21 in 6.2 mi West 4.6 mph - N/A   Scattered Clouds
8:00 PM 62.6 °F 62.6 °F 100% 30.21 in 6.2 mi West 3.5 mph - N/A   Scattered Clouds
8:30 PM 64.4 °F 64.4 °F 100% 30.21 in 6.2 mi West 5.8 mph - N/A   Overcast
9:00 PM 64.4 °F 64.4 °F 100% 30.24 in 6.2 mi SSW 6.9 mph - N/A   Overcast
9:30 PM 64.4 °F 64.4 °F 100% 30.24 in 6.2 mi South 6.9 mph - N/A   Drizzle
10:00 PM 62.6 °F 62.6 °F 100% 30.24 in 6.2 mi SSW 8.1 mph - N/A   Overcast
10:30 PM 62.6 °F 62.6 °F 100% 30.24 in 6.2 mi SW 5.8 mph - N/A Rain Light Rain Showers